Location: Dos Palmas
(32.4468°N, 116.8732°W)
Time: 11:43:26
(UTC+00:00)

Meteor 1-27 Rocket - Pass Details

Date: 20 June 2021
Orbit: 830 x 910 km, 81.3° (Epoch: 30 July)

Event Time Altitude Azimuth Distance (km) Brightness Sun altitude
Rises 11:21:27 0° 357° (N) 3,402 7.4 -14.6°
Reaches altitude 10° 11:23:56 10° 1° (N) 2,456 6.7 -14.2°
Maximum altitude 11:29:23 58° 80° (E) 966 4.3 -13.3°
Drops below altitude 10° 11:34:47 10° 159° (SSE) 2,426 5.9 -12.4°
Sets 11:37:12 0° 163° (SSE) 3,357 6.6 -12.0°
